Date String (YYYY-MM-DD hh:mm:ss) UTC,Instrument flags,Ambient pressure (hPa),Sample flow (lpm),Bypass flow (lpm),Sample temperature (°C),Ambient temperature (°C),ASC tube jacket temperature (°C),LED temperature (°C),Box temperature (°C),Sample RH (%),Span deviation,Mass concentration (μg/m³),Mass concentration (μg/m³),Mass concentration (μg/m³)
DateTimeUTC,F1_M11,P_M11,Q1_M11,Q2_M11,T1_M11,T2_M11,T3_M11,T4_M11,T5_M11,U1_M11,ZSPAN_M11,X0_M11,X2_M11,X1_M11
2021-09-14 11:00:00,,0828.5,4.99,0.00,29.4,28.7,00.0,38.6,31.1,23.5,0000.0,0010.42,0004.33,0003.36
2021-09-14 11:01:00,,0828.6,5.02,0.00,29.4,28.7,00.0,38.6,31.1,23.5,0000.0,0009.96,0004.27,0003.35
2021-09-14 11:02:00,,0829.1,5.00,0.00,29.4,28.7,00.0,38.6,31.1,23.4,0000.0,0009.78,0004.22,0003.35
2021-09-14 11:03:00,,0829.0,4.99,0.00,29.4,28.7,00.0,38.6,31.1,23.4,0000.0,0009.44,0004.21,0003.35
2021-09-14 11:04:00,,0829.0,5.00,0.00,29.4,28.7,00.0,38.6,31.1,23.4,0000.0,0008.97,0004.16,0003.34
2021-09-14 11:05:00,,0829.0,5.02,0.00,29.4,28.7,00.0,38.6,31.1,23.4,0000.0,0009.47,0004.16,0003.34
2021-09-14 11:06:00,,0829.0,4.99,0.00,29.4,28.7,00.0,38.6,31.2,23.4,0000.0,0010.68,0004.17,0003.34
2021-09-14 11:07:00,,0828.7,4.99,0.00,29.4,28.7,00.0,38.6,31.2,23.4,0000.0,0011.02,0004.23,0003.35
2021-09-14 11:08:00,,0828.5,5.01,0.00,29.4,28.7,00.0,38.6,31.2,23.4,0000.0,0010.79,0004.23,0003.35
2021-09-14 11:09:00,,0828.3,4.99,0.00,29.4,28.7,00.0,38.6,31.2,23.3,0000.0,0010.76,0004.26,0003.36
2021-09-14 11:10:00,,0828.3,5.00,0.00,29.4,28.7,00.0,38.6,31.2,23.4,0000.0,0010.81,0004.24,0003.36
2021-09-14 11:11:00,,0828.2,5.01,0.00,29.4,28.7,00.0,38.6,31.1,23.4,0000.0,0011.05,0004.26,0003.36
2021-09-14 11:12:00,,0828.1,5.00,0.00,29.4,28.7,00.0,38.6,31.1,23.4,0000.0,0011.17,0004.30,0003.37
2021-09-14 11:13:00,,0828.1,5.01,0.00,29.4,28.7,00.0,38.6,31.1,23.5,0000.0,0011.27,0004.31,0003.37
2021-09-14 11:14:00,,0828.1,5.00,0.00,29.4,28.7,00.0,38.6,31.1,23.5,0000.0,0011.19,0004.28,0003.38
2021-09-14 11:15:00,,0828.1,4.99,0.00,29.4,28.7,00.0,38.6,31.2,23.6,0000.0,0011.36,0004.33,0003.38
2021-09-14 11:16:00,,0828.1,5.00,0.00,29.4,28.7,00.0,38.6,31.2,23.7,0000.0,0010.69,0004.31,0003.39
2021-09-14 11:17:00,,0828.1,5.01,0.00,29.4,28.7,00.0,38.6,31.1,23.6,0000.0,0009.42,0004.29,0003.37
2021-09-14 11:18:00,,0828.1,5.01,0.00,29.4,28.7,00.0,38.6,31.1,23.7,0000.0,0009.31,0004.26,0003.38
2021-09-14 11:19:00,,0828.2,5.00,0.00,29.4,28.7,00.0,38.6,31.1,24.0,0000.0,0010.12,0004.28,0003.38
2021-09-14 11:20:00,,0828.2,5.00,0.00,29.4,28.7,00.0,38.6,31.1,23.8,0000.0,0010.37,0004.29,0003.36
2021-09-14 11:21:00,,0828.2,5.00,0.00,29.4,28.7,00.0,38.6,31.1,23.9,0000.0,0010.38,0004.27,0003.36
2021-09-14 11:22:00,,0828.2,5.00,0.00,29.4,28.7,00.0,38.6,31.1,23.7,0000.0,0010.32,0004.25,0003.36
2021-09-14 11:23:00,,0828.2,5.00,0.00,29.4,28.7,00.0,38.6,31.1,23.5,0000.0,0010.24,0004.23,0003.36
2021-09-14 11:24:00,,0828.1,5.01,0.00,29.4,28.7,00.0,38.6,31.1,23.6,0000.0,0010.14,0004.28,0003.36
2021-09-14 11:25:00,,0828.1,5.01,0.00,29.4,28.7,00.0,38.6,31.1,23.6,0000.0,0010.36,0004.30,0003.36
2021-09-14 11:26:00,,0828.1,4.99,0.00,29.4,28.7,00.0,38.6,31.1,23.5,0000.0,0010.96,0004.26,0003.36
2021-09-14 11:27:00,,0828.1,4.99,0.00,29.4,28.7,00.0,38.6,31.2,23.6,0000.0,0011.38,0004.24,0003.37
2021-09-14 11:28:00,,0828.1,5.00,0.00,29.4,28.7,00.0,38.6,31.1,23.6,0000.0,0011.64,0004.32,0003.40
2021-09-14 11:29:00,,0828.1,5.00,0.00,29.4,28.8,00.0,38.6,31.2,23.8,0000.0,0011.53,0004.30,0003.40
2021-09-14 11:30:00,,0828.1,5.01,0.00,29.4,28.8,00.0,38.6,31.2,24.0,0000.0,0010.72,0004.29,0003.42
2021-09-14 11:31:00,,0828.0,5.00,0.00,29.4,28.8,00.0,38.6,31.2,24.1,0000.0,0011.27,0004.31,0003.45
2021-09-14 11:32:00,,0828.0,5.00,0.00,29.4,28.8,00.0,38.6,31.2,24.3,0000.0,0011.42,0004.36,0003.46
2021-09-14 11:33:00,,0828.1,5.01,0.00,29.5,28.8,00.0,38.6,31.2,24.5,0000.0,0011.29,0004.41,0003.48
2021-09-14 11:34:00,,0828.1,5.00,0.00,29.4,28.8,00.0,38.6,31.2,24.8,0000.0,0011.17,0004.44,0003.49
2021-09-14 11:35:00,,0828.1,5.00,0.00,29.4,28.8,00.0,38.6,31.2,25.0,0000.0,0011.57,0004.41,0003.51
2021-09-14 11:36:00,,0828.1,4.99,0.00,29.4,28.7,00.0,38.6,31.1,25.3,0000.0,0011.86,0004.41,0003.53
2021-09-14 11:37:00,,0828.1,5.00,0.00,29.4,28.7,00.0,38.6,31.1,25.2,0000.0,0011.29,0004.44,0003.54
2021-09-14 11:38:00,,0828.0,5.00,0.00,29.4,28.7,00.0,38.5,31.1,25.3,0000.0,0011.04,0004.49,0003.55
2021-09-14 11:39:00,,0828.0,5.01,0.00,29.4,28.7,00.0,38.5,31.1,25.6,0000.0,0011.32,0004.43,0003.54
2021-09-14 11:40:00,,0827.9,4.98,0.00,29.4,28.7,00.0,38.5,31.1,25.5,0000.0,0011.55,0004.43,0003.55
2021-09-14 11:41:00,,0827.9,5.00,0.00,29.4,28.7,00.0,38.6,31.1,25.6,0000.0,0011.83,0004.45,0003.55
2021-09-14 11:42:00,,0828.0,4.99,0.00,29.4,28.8,00.0,38.6,31.2,25.4,0000.0,0011.37,0004.48,0003.57
2021-09-14 11:43:00,,0828.0,5.00,0.00,29.4,28.8,00.0,38.6,31.2,25.4,0000.0,0011.45,0004.53,0003.59
2021-09-14 11:44:00,,0828.0,5.00,0.00,29.5,28.8,00.0,38.6,31.2,25.4,0000.0,0011.95,0004.55,0003.59
2021-09-14 11:45:00,,0828.0,4.99,0.00,29.5,28.8,00.0,38.6,31.3,25.5,0000.0,0012.08,0004.54,0003.61
2021-09-14 11:46:00,,0828.1,5.01,0.00,29.5,28.9,00.0,38.6,31.3,25.4,0000.0,0011.41,0004.55,0003.62
2021-09-14 11:47:00,,0828.1,5.00,0.00,29.5,28.9,00.0,38.6,31.3,25.4,0000.0,0011.00,0004.58,0003.64
2021-09-14 11:48:00,,0828.1,4.98,0.00,29.5,28.9,00.0,38.6,31.3,25.1,0000.0,0010.97,0004.57,0003.65
2021-09-14 11:49:00,,0828.2,5.00,0.00,29.5,28.9,00.0,38.6,31.3,25.0,0000.0,0011.06,0004.56,0003.66
2021-09-14 11:50:00,,0828.1,5.01,0.00,29.5,28.9,00.0,38.6,31.3,24.9,0000.0,0010.70,0004.61,0003.68
2021-09-14 11:51:00,,0828.1,5.00,0.00,29.5,28.8,00.0,38.6,31.3,24.9,0000.0,0010.92,0004.67,0003.69
2021-09-14 11:52:00,,0828.1,4.99,0.00,29.5,28.8,00.0,38.6,31.3,24.8,0000.0,0010.89,0004.70,0003.72
2021-09-14 11:53:00,,0828.1,5.01,0.00,29.5,28.8,00.0,38.6,31.2,24.7,0000.0,0011.16,0004.71,0003.75
2021-09-14 11:54:00,,0828.1,5.01,0.00,29.5,28.8,00.0,38.6,31.2,24.8,0000.0,0010.91,0004.68,0003.77
2021-09-14 11:55:00,,0828.1,4.99,0.00,29.5,28.8,00.0,38.6,31.3,24.8,0000.0,0010.53,0004.69,0003.79
2021-09-14 11:56:00,,0828.1,5.00,0.00,29.5,28.8,00.0,38.6,31.3,24.8,0000.0,0010.90,0004.75,0003.80
2021-09-14 11:57:00,,0828.1,5.00,0.00,29.5,28.8,00.0,38.6,31.3,24.8,0000.0,0011.46,0004.81,0003.81
2021-09-14 11:58:00,,0828.1,5.00,0.00,29.5,28.9,00.0,38.6,31.3,24.7,0000.0,0011.40,0004.80,0003.83
2021-09-14 11:59:00,,0828.0,5.01,0.00,29.5,28.9,00.0,38.6,31.3,24.6,0000.0,0012.07,0004.86,0003.86
